Regional Weather Roundup
Issued by NWS

Home | Current Version | Previous Version | Graphics & Text | Print | Product List | Glossary On
Versions: 1 2 3 4 5 6 7 8 9 10 11 12 13 14 15 16 17 18 19 20 21 22 23 24 25 26 27 28 29 30 31 32 33 34 35 36 37 38 39 40 41 42 43 44 45 46 47 48 49 50
000
ASUS43 KMKX 291900
RWRWI

WISCONSIN REGIONAL WEATHER ROUNDUP
NATIONAL WEATHER SERVICE MILWAUKEE/SULLIVAN WI
200 PM CDT SUN MAY 29 2016

NOTE: "FAIR" INDICATES FEW OR NO CLOUDS BELOW 12,000 FEET WITH NO
SIGNIFICANT WEATHER AND/OR OBSTRUCTIONS TO VISIBILITY.

WIZ001-002-006>008-014>016-023>028-292000-
NORTHWEST WISCONSIN

CITY           SKY/WX    TMP DP  RH WIND       PRES   REMARKS
SUPERIOR ARPT  CLOUDY    68  57  68 W12G23    29.87R
ASHLAND        CLOUDY    68  57  68 W12G23    29.85R
HAYWARD        CLOUDY    69  56  62 W10G21    29.90R
SIREN          CLOUDY    70  53  54 NW17G26   29.93R
CUMBERLAND     CLOUDY    68  55  64 W14G21    29.93R
RICE LAKE      CLOUDY    71  58  64 W18G26    29.94S
CHETEK         PTSUNNY   70  60  69 W12G18    29.92S
LADYSMITH      PTSUNNY   69  60  72 W17G23    29.92S
EAU CLAIRE     RAIN      67  60  78 W18       29.93S
MENOMONIE      PTSUNNY   72  65  79 SW18G24   29.94S
NEW RICHMOND   PTSUNNY   72  55  56 W17G26    29.95S
OSCEOLA        PTSUNNY   71  56  59 W13G22    29.98R
$$

WIZ003>005-009-010-017-018-292000-
NORTH CENTRAL WISCONSIN

CITY           SKY/WX    TMP DP  RH WIND       PRES   REMARKS
MANITOWISH WTR NOT AVBL
ARBOR VITAE    PTSUNNY   65  60  85 W9        29.87R
WOODRUFF       PTSUNNY   65  60  85 W9        29.87R
RHINELANDER    CLOUDY    70  57  63 W20G25    29.88S
EAGLE RIVER      N/A     68  55  62 W16       29.85F
LAND O LAKES   PTSUNNY   66  58  74 W9        29.85S
PHILLIPS       CLOUDY    66  59  79 W7        29.88R
TOMAHAWK       PTSUNNY   69  58  68 W9G17     29.88F
MEDFORD        CLOUDY    67  62  83 W8G23     29.90S
MERRILL        HVY RAIN  65  61  85 W12G20    29.89F
$$

WIZ029-030-035-036-043>047-292000-
CENTRAL WISCONSIN

CITY           SKY/WX    TMP DP  RH WIND       PRES   REMARKS
WAUSAU         CLOUDY    72  60  66 W16G22    29.88S
MOSINEE        LGT RAIN  66  64  94 SW14G20   29.92R
MARSHFIELD     LGT RAIN  65  61  87 W15G22    29.93R FOG
STEVENS POINT  CLOUDY    64  60  87 W13       29.93R
WAUPACA        CLOUDY    73  60  64 SW14      29.91S
WAUTOMA        PTSUNNY  N/A N/A N/A W16G24    29.93R
WISC RAPIDS    CLOUDY    72  56  57 W20G29    29.93S
CAMP DOUGLAS   NOT AVBL
$$

WIZ011>013-019>022-031-037>040-048>050-292000-
NORTHEAST WISCONSIN

CITY           SKY/WX    TMP DP  RH WIND       PRES   REMARKS
ANTIGO         CLOUDY    67  61  81 W14G20    29.88F
SHAWANO        CLOUDY    74  61  64 W13G22    29.89R
OCONTO         PTSUNNY   73  68  82 W10G20    29.85F
STURGEON BAY   NOT AVBL
GREEN BAY      PTSUNNY   72  63  73 W15G21    29.88S
MANITOWOC      NOT AVBL
APPLETON       PTSUNNY   70  61  73 W18       29.90S
CLINTONVILLE   CLOUDY    72  57  60 W12G17    29.89S
OSHKOSH        CLOUDY    72  59  63 W6        29.91S
$$

WIZ032>034-041-042-053>061-292000-
SOUTHWEST WISCONSIN

CITY           SKY/WX    TMP DP  RH WIND       PRES   REMARKS
LA CROSSE      MOSUNNY   78  57  48 W15G28    29.95S
SPARTA         MOSUNNY   76  58  53 W16G24    29.95F
VIROQUA        PTSUNNY   75  57  53 W13G26    29.98F
BOSCOBEL       MOSUNNY   79  59  50 W14       29.98F HX  80
PRAIRIE DU CHI MOSUNNY   77  54  44 W16       30.00S
PLATTEVILLE    MOSUNNY   76  60  57 W23       30.02S
$$

WIZ056-057-062-063-064-067-068-292000-
SOUTH CENTRAL WISCONSIN

CITY           SKY/WX    TMP DP  RH WIND       PRES   REMARKS
REEDSBURG      MOSUNNY   75  58  55 W18G26    29.96S
BARABOO/DELLS  PTSUNNY   75  56  51 W9        29.96S
LONE ROCK      NOT AVBL
MINERAL POINT  PTSUNNY   73  59  60 W15G25    30.01R
MADISON        MOSUNNY   76  58  53 W10G22    29.96S
MIDDLETON      MOSUNNY   75  58  55 W16G28    29.98S
WATERTOWN      MOSUNNY   74  59  59 W14G24    29.96S
MONROE         PTSUNNY   73  55  53 W20G26    30.01R
JANESVILLE     PTSUNNY   79  57  47 W14G23    29.98S HX  80
$$

WIZ051-052-058>065-066-070>072-292000-
SOUTHEAST WISCONSIN

CITY           SKY/WX    TMP DP  RH WIND       PRES   REMARKS
MILWAUKEE      PTSUNNY   75  59  57 W10       29.96S
WAUKESHA       PTSUNNY   73  57  56 W17G25    29.97S
MILWAUKEE/TIMM PTSUNNY   75  57  53 SW18G24   29.96S
RACINE         MOSUNNY   77  59  53 SW12G21   29.98F
BURLINGTON     MOSUNNY   75  59  57 SW15G23   29.98S
KENOSHA        MOSUNNY   75  60  59 SW18G25   29.98F
FOND DU LAC    MOSUNNY   75  59  57 W12G24    29.92S
SHEBOYGAN      CLOUDY    71  61  70 W12       29.92R
WEST BEND      MOSUNNY   73  59  60 SW14G22   29.94S
JUNEAU         PTSUNNY   72  60  66 SW15G25   29.96S
$$

LSZ147-162-292000-
LAKE SUPERIOR

STATION/POSITION TIME  TEMP    WIND        PRES    WAVE
                       AIR SEA DIR/SP/G            HT/PER
                 (UTC) (F)     (DEG/KT/KT) (MB)    (FT/S)
W MID LAKE BUOY  1750   44 38  230/ 12/ 12 1008.8F   0
DEVILS ISLAND    1800   53     250/ 19/ 22 1009.3R
SAXON HARBOR     1800   65     240/  6/ 14 1009.5
$$

LMZ867-665-643>646-292000-
LAKE MICHIGAN

STATION/POSITION TIME  TEMP    WIND        PRES    WAVE
                       AIR SEA DIR/SP/G            HT/PER
                 (UTC) (F)     (DEG/KT/KT) (MB)    (FT/S)
CHAMBERS ISLAND  1800   63     180/ 11/ 23 1011.2R
N MID LAKE BUOY  1750   50 47  200/ 12/ 14 1011.2S   2/ 5
NORTHPORT PIER   1800   59     140/  6/ 10 1010.8F
SISTER BAY       1705   66     160/ 10/ 15   N/A
ALGOMA LAKESHORE 1702          230/ 14/ 21   N/A
KEWAUNEE LAKESHO 1800   68     230/ 12/ 16 1011.4R
SHEBOYGAN LAKESH 1800   71     230/ 19/ 22 1013.0F
PORT WASHINGTON  1840   78     240/ 10/ 16 1014.2F
S MID LAKE BUOY  1750   57 51  200/ 10/ 12 1014.9F   1/ 3
KENOSHA   LAKESH 1800   73     260/ 15/ 21 1014.9F
$$

TC  - TEMPERATURE IN CELSIUS
VSB - VISIBILITY IN STATUTE MILES
WCI - WIND CHILL INDEX
HX  - HEAT INDEX





USA.gov is the U.S. government's official web portal to all federal, state and local government web resources and services.